[[{"header":{"parameterUnit":"m.s-1","parameterCategory":2,"la1":30.2991,"la2":30.254,"lo1":-89.0895,"lo2":-89.0444,"dy":0.0017,"dx":0.0017,"nx":28,"ny":28,"refTime":"2024-07-17T21:00:00:Z","depth":"0","parameterNumber":2,"parameterNumberName":"U-component_of_CURRENTS"},"data":[0,0,0,0,0,0,0,0,0,0,0,0,0,0,0,0,0,0,0,0,0,0,0,0,0,0,0,0,0,0,0,0,0,0,0,0,0,0,0,0,0,0,0,0,0,0,0,0,0,0,0,0,0,0,0,0,0,0,-0.3536,-0.3539,0,-0.3729,-0.373,-0.3731,-0.3761,-0.376,-0.376,-0.3759,-0.3698,-0.3697,-0.3695,0,0,0,0,0,0,0,0,0,0,0,0,0,-0.3014,-0.3023,-0.3536,-0.3539,-0.3543,-0.3728,-0.373,-0.3731,-0.3761,-0.376,-0.376,-0.3759,-0.3698,-0.3697,-0.3695,0,0,0,0,0,0,0,0,0,0,0,0,0,-0.3215,-0.3026,-0.3535,-0.359,-0.3598,-0.3728,-0.373,-0.3731,-0.3761,-0.376,-0.376,-0.3759,-0.3699,-0.3697,-0.3695,-0.3699,0,0,-0.369,-0.3689,0,0,0,0,0,0,0,0,-0.3203,-0.3232,-0.3578,-0.3587,-0.3596,-0.3732,-0.3524,-0.3713,-0.3761,-0.3685,-0.3759,-0.3759,-0.3695,-0.3693,-0.3716,-0.3696,-0.3693,-0.3689,-0.3688,-0.3688,-0.3687,0,0,0,0,0,0,0,-0.319,-0.3223,-0.3599,-0.3583,-0.3593,-0.3544,-0.3572,-0.3559,-0.3676,-0.3692,-0.3698,-0.374,-0.3696,-0.3718,-0.3714,-0.3692,-0.369,-0.3688,-0.3687,-0.3686,-0.3649,-0.3649,0,0,0,0,0,0,-0.3205,-0.3212,-0.3593,-0.3606,-0.3409,-0.3556,-0.3587,-0.3678,-0.3682,-0.3689,-0.3741,-0.3741,-0.3721,-0.3716,-0.3712,-0.3636,-0.3688,-0.3686,-0.3685,-0.3649,-0.3649,-0.3649,0,0,0,0,0,0,-0.3194,-0.3239,-0.3585,-0.3419,-0.3462,-0.3569,-0.3669,-0.3682,-0.3707,-0.3725,-0.3723,-0.3754,-0.372,-0.3714,-0.3708,-0.3637,-0.3685,-0.3684,-0.3649,-0.3649,-0.3649,-0.3535,0,0,0,0,0,0,-0.3179,-0.3235,-0.3271,-0.3423,-0.3473,-0.3655,-0.3672,-0.3687,-0.3742,-0.3743,-0.3735,-0.373,-0.3719,-0.3711,-0.3706,-0.3635,-0.3682,-0.3649,-0.3649,-0.3649,-0.3539,-0.3532,-0.3525,0,0,0,0,0,-0.316,-0.3231,-0.3273,-0.3317,-0.3533,-0.3658,-0.3675,-0.3736,-0.3743,-0.3753,-0.3756,-0.373,-0.3707,-0.371,-0.3705,-0.3631,-0.3649,-0.3649,-0.3649,-0.3542,-0.3533,-0.3525,0,0,0,0,0,0,-0.3017,-0.3248,-0.3295,-0.3431,-0.353,-0.3667,-0.3689,-0.3738,-0.3754,-0.3745,-0.3741,-0.3736,-0.3697,-0.3706,-0.3709,-0.363,-0.3669,-0.3668,-0.359,-0.3581,-0.3574,-0.3483,-0.3681,0,0,0,0,0,-0.3011,-0.3106,-0.3307,-0.3386,-0.3457,-0.3568,-0.3616,-0.3673,-0.3732,-0.374,-0.3739,-0.3729,-0.3697,-0.3675,-0.3667,-0.3629,-0.3612,-0.3581,-0.3574,-0.3568,-0.3496,-0.346,-0.3441,-0.365,-0.365,-0.365,0,0,-0.296,-0.3101,-0.3147,-0.3356,-0.3437,-0.3477,-0.3591,-0.3682,-0.3663,-0.3725,-0.3679,-0.3708,-0.369,-0.3642,-0.3623,-0.3634,-0.351,-0.3568,-0.3562,-0.3491,-0.3458,-0.3436,-0.3417,-0.365,-0.365,-0.365,0,0,-0.2879,-0.3056,-0.3091,-0.3181,-0.3337,-0.3417,-0.3445,-0.3594,-0.3617,-0.3628,-0.364,-0.3618,-0.3617,-0.3557,-0.3529,-0.348,-0.3483,-0.3512,-0.3377,-0.3345,-0.3325,-0.3308,-0.3287,-0.3268,-0.3496,-0.3496,-0.3496,0,-0.28,-0.2911,-0.3102,-0.3144,-0.3201,-0.3376,-0.339,-0.3431,-0.3533,-0.3545,-0.3592,-0.356,-0.3539,-0.3426,-0.34,-0.3443,-0.3462,-0.3402,-0.3328,-0.331,-0.3294,-0.3277,-0.3257,-0.349,-0.3491,-0.3491,-0.3492,0,-0.2735,-0.2814,-0.2848,-0.2952,-0.3019,-0.3089,-0.3207,-0.3251,-0.3321,-0.3362,-0.3344,-0.3353,-0.3328,-0.3321,-0.3325,-0.3202,-0.3268,-0.3331,-0.3332,-0.3265,-0.3254,-0.3235,-0.3482,-0.3484,-0.3486,-0.3487,0,0,-0.2626,-0.2775,-0.2786,-0.2819,-0.2956,-0.3028,-0.3002,-0.3078,-0.3081,-0.3132,-0.3109,-0.3031,-0.3095,-0.3065,-0.3093,-0.3032,-0.293,-0.3121,-0.3122,-0.3066,-0.2885,-0.2812,-0.2786,-0.3013,-0.3009,-0.3005,-0.2932,0,-0.2527,-0.2565,-0.2656,-0.2653,-0.2711,-0.2844,-0.2822,-0.2883,-0.2953,-0.2974,-0.2976,-0.2969,-0.2982,-0.3003,-0.2927,-0.2968,-0.2874,-0.2943,-0.2985,-0.2983,-0.2898,-0.2758,-0.2636,-0.2549,-0.2914,-0.2911,-0.2909,0,-0.2457,-0.2511,-0.2504,-0.2603,-0.2642,-0.2628,-0.2714,-0.2722,-0.2763,-0.2824,-0.2804,-0.2859,-0.2762,-0.2818,-0.2728,-0.2802,-0.2781,-0.2791,-0.2792,-0.2725,-0.2871,-0.2674,-0.2503,-0.2506,-0.2881,-0.2883,-0.2886,0,-0.2359,-0.2426,-0.2428,-0.2456,-0.2557,-0.2564,-0.2612,-0.2668,-0.2714,-0.2729,-0.2777,-0.2712,-0.2725,-0.2672,-0.2669,-0.2723,-0.2597,-0.2696,-0.2579,-0.2579,-0.2467,-0.2461,-0.2253,-0.2544,-0.2544,-0.2544,-0.2544,0,-0.2289,-0.2297,-0.239,-0.24,-0.2418,-0.2505,-0.253,-0.2574,-0.2637,-0.2673,-0.2694,-0.2685,-0.2694,-0.2657,-0.2629,-0.2531,-0.2561,-0.2471,-0.2513,-0.2432,-0.2424,-0.242,-0.2484,-0.2542,-0.2542,-0.2543,-0.2543,0,-0.2183,-0.2244,-0.2264,-0.2349,-0.2377,-0.2391,-0.2509,-0.2558,-0.2608,-0.2651,-0.2661,-0.2673,-0.2612,-0.2593,-0.2524,-0.2487,-0.2361,-0.235,-0.2249,-0.2275,-0.2171,-0.2236,-0.2063,-0.2003,-0.2206,-0.2203,-0.22,0,-0.2128,-0.2126,-0.2207,-0.225,-0.2287,-0.2348,-0.2424,-0.2521,-0.2589,-0.2628,-0.265,-0.2594,-0.2485,-0.2347,-0.2284,-0.2173,-0.2214,-0.2028,-0.2039,-0.2049,-0.2156,-0.223,-0.2199,-0.1882,-0.1877,-0.1873,-0.187,0,-0.2017,-0.2043,-0.2069,-0.2165,-0.2242,-0.232,-0.2424,-0.2448,-0.2571,-0.2509,-0.2412,-0.2289,-0.2223,-0.2025,-0.1945,-0.1879,-0.1989,-0.1941,-0.1965,-0.1831,-0.1881,-0.1886,-0.2087,-0.1835,-0.1838,-0.1841,-0.1843,-0.1844,-0.1922,-0.1918,-0.1986,-0.2064,-0.2171,-0.2242,-0.2191,-0.226,-0.2188,-0.201,-0.206,-0.1706,-0.1826,-0.1645,-0.1613,-0.1601,-0.1695,-0.157,-0.1637,-0.1704,-0.163,-0.1731,-0.1529,-0.1531,-0.1532,-0.1534,-0.1535,0,-0.1793,-0.1832,-0.1909,-0.199,-0.2062,-0.214,-0.2167,-0.2032,-0.1779,-0.1601,-0.1332,-0.1095,-0.1087,-0.1237,-0.1398,-0.1341,-0.1335,-0.1329,-0.1401,-0.1376,-0.1449,-0.1416,-0.1162,-0.1162,-0.1162,-0.1162,-0.1162,-0.1162,-0.1738,-0.1743,-0.1793,-0.1857,-0.1909,-0.1811,-0.1727,-0.1469,-0.1248,-0.0718,-0.0381,-0.0239,-0.064,-0.1191,-0.1354,-0.1289,-0.1297,-0.1232,-0.1301,-0.1381,-0.141,-0.1438,-0.1416,-0.1166,-0.1166,-0.1148,-0.1149,-0.1149]},{"header":{"parameterUnit":"m.s-1","parameterCategory":2,"la1":30.2991,"la2":30.254,"lo1":-89.0895,"lo2":-89.0444,"dy":0.0017,"dx":0.0017,"nx":28,"ny":28,"refTime":"2024-07-17T21:00:00:Z","depth":"0","parameterNumber":3,"parameterNumberName":"V-component_of_CURRENTS"},"data":[0,0,0,0,0,0,0,0,0,0,0,0,0,0,0,0,0,0,0,0,0,0,0,0,0,0,0,0,0,0,0,0,0,0,0,0,0,0,0,0,0,0,0,0,0,0,0,0,0,0,0,0,0,0,0,0,0,0,-0.0102,-0.01,0,0.0085,0.0087,0.0089,0.0223,0.0225,0.0226,0.0227,0.0398,0.0401,0.0404,0,0,0,0,0,0,0,0,0,0,0,0,0,-0.0301,-0.0298,-0.0103,-0.01,-0.0098,0.0085,0.0087,0.0089,0.0223,0.0225,0.0226,0.0228,0.0397,0.04,0.0404,0,0,0,0,0,0,0,0,0,0,0,0,0,-0.0177,-0.0298,-0.0103,-0.0007,0.0004,0.0084,0.0087,0.009,0.0223,0.0225,0.0227,0.0229,0.0395,0.04,0.0405,0.0396,0,0,0.042,0.0422,0,0,0,0,0,0,0,0,-0.0184,-0.017,-0.0024,-0.0014,-0.0001,0.0135,0.008,0.0192,0.0222,0.0137,0.0227,0.023,0.0308,0.032,0.0348,0.0404,0.0411,0.0421,0.0424,0.0426,0.0427,0,0,0,0,0,0,0,-0.0193,-0.0177,-0.0031,-0.0021,-0.0007,0.0042,0.0061,0.0102,0.0207,0.0145,0.0155,0.0179,0.0314,0.0343,0.0353,0.0414,0.042,0.0425,0.0428,0.043,0.0581,0.0582,0,0,0,0,0,0,-0.0215,-0.0185,-0.0037,-0.0025,-0.0087,0.0044,0.0065,0.0087,0.0207,0.0229,0.0178,0.0185,0.0334,0.0347,0.036,0.0377,0.0426,0.043,0.0433,0.058,0.0581,0.0582,0,0,0,0,0,0,-0.0221,-0.0204,-0.0044,-0.0099,-0.0075,0.0045,0.0069,0.009,0.0126,0.0233,0.0254,0.0193,0.0336,0.0353,0.041,0.0384,0.0433,0.0437,0.0579,0.058,0.0582,0.0397,0,0,0,0,0,0,-0.0227,-0.0207,-0.0212,-0.0101,-0.0072,-0.0002,0.0068,0.0092,0.0139,0.015,0.0252,0.0271,0.0339,0.0402,0.0414,0.0391,0.0441,0.0577,0.0579,0.0581,0.0402,0.0392,0.0384,0,0,0,0,0,-0.0235,-0.0248,-0.0214,-0.0196,-0.0079,-0.0002,0.0016,0.0107,0.0137,0.0146,0.0224,0.0268,0.0425,0.0405,0.042,0.0398,0.0576,0.0579,0.0581,0.0406,0.0394,0.0384,0,0,0,0,0,0,-0.0333,-0.0232,-0.0192,-0.0173,-0.0096,0.0022,0.0034,0.0092,0.0159,0.0167,0.0265,0.0288,0.0334,0.0401,0.0378,0.0459,0.0513,0.0519,0.0376,0.0365,0.0356,0.0314,0.0445,0,0,0,0,0,-0.036,-0.0349,-0.0235,-0.0225,-0.0189,-0.0085,-0.0048,0.0015,0.0096,0.0129,0.02,0.0285,0.0353,0.0385,0.0458,0.048,0.0541,0.0489,0.048,0.0471,0.0454,0.0518,0.0511,0.059,0.059,0.059,0,0,-0.0394,-0.0342,-0.0332,-0.0247,-0.0182,-0.0149,-0.0058,-0.0008,0.0012,0.0132,0.0165,0.0248,0.0357,0.0397,0.0424,0.0446,0.0486,0.0474,0.0464,0.0453,0.0519,0.0511,0.0503,0.0592,0.0591,0.0591,0,0,-0.0457,-0.0411,-0.0414,-0.0363,-0.0276,-0.021,-0.0202,-0.0092,-0.005,-0.0001,0.0094,0.0153,0.0259,0.0321,0.037,0.0354,0.0437,0.0396,0.0302,0.0363,0.0355,0.0349,0.0416,0.0418,0.0387,0.0386,0.0386,0,-0.0502,-0.0485,-0.0406,-0.0394,-0.0362,-0.0247,-0.0238,-0.0187,-0.0078,-0.0052,-0.0008,0.0145,0.0218,0.0268,0.0269,0.0322,0.0386,0.0317,0.0343,0.0339,0.0336,0.0406,0.041,0.0378,0.0379,0.038,0.038,0,-0.0554,-0.0543,-0.0543,-0.0493,-0.0455,-0.043,-0.034,-0.0308,-0.0246,-0.018,-0.0113,-0.0007,0.0089,0.012,0.0184,0.0206,0.0268,0.0317,0.0348,0.0315,0.0394,0.0401,0.0365,0.0368,0.0371,0.0373,0,0,-0.0622,-0.0588,-0.0583,-0.0584,-0.0503,-0.0476,-0.0459,-0.0393,-0.0376,-0.029,-0.0257,-0.0164,-0.0093,-0.0032,0.0056,0.0096,0.0117,0.0183,0.0191,0.0209,0.0264,0.0334,0.035,0.0172,0.0172,0.0172,0.0326,0,-0.0674,-0.0702,-0.0655,-0.0673,-0.0671,-0.0585,-0.0579,-0.0518,-0.044,-0.0384,-0.0287,-0.0218,-0.0153,-0.0106,-0.0061,0.0095,0.0129,0.0071,0.033,0.0338,0.0369,0.0357,0.0437,0.0583,0.0334,0.0335,0.0336,0,-0.0714,-0.0734,-0.077,-0.0764,-0.0753,-0.0753,-0.0706,-0.0684,-0.0586,-0.0525,-0.0445,-0.0335,-0.0256,-0.0194,-0.0007,-0.0038,0.0083,0.0187,0.0197,0.0327,0.042,0.0584,0.0607,0.0782,0.0348,0.0347,0.0346,0,-0.0792,-0.0799,-0.0842,-0.0838,-0.0818,-0.0825,-0.0811,-0.0734,-0.0722,-0.0612,-0.0563,-0.0437,-0.0341,-0.0204,0.002,0.0012,0.0244,0.0269,0.0437,0.0445,0.0597,0.0617,0.0784,0.0371,0.0371,0.037,0.037,0,-0.085,-0.0878,-0.0891,-0.0915,-0.0984,-0.0922,-0.0964,-0.0912,-0.0839,-0.0766,-0.065,-0.0537,-0.0337,-0.0156,0.0004,0.0259,0.0239,0.0415,0.0484,0.0539,0.0551,0.078,0.0842,0.0376,0.0375,0.0374,0.0373,0,-0.0912,-0.0917,-0.0979,-0.1001,-0.1026,-0.1075,-0.1103,-0.1128,-0.1009,-0.0897,-0.0861,-0.0621,-0.0349,-0.0147,0.0136,0.0267,0.0607,0.0568,0.0621,0.0692,0.0978,0.1026,0.1255,0.1383,0.0759,0.0762,0.0764,0,-0.0941,-0.098,-0.1072,-0.1169,-0.1192,-0.1266,-0.1334,-0.125,-0.1202,-0.0893,-0.0817,-0.0543,-0.0231,0.0154,0.0383,0.0657,0.0769,0.0864,0.0838,0.1,0.1105,0.1122,0.1214,0.0979,0.0983,0.0986,0.0988,0,-0.1002,-0.1036,-0.1112,-0.1329,-0.1437,-0.1501,-0.1511,-0.1445,-0.1219,-0.1008,-0.0562,-0.0276,0.0096,0.0477,0.0724,0.0874,0.101,0.0934,0.1103,0.1281,0.1314,0.1469,0.0871,0.1015,0.1013,0.1011,0.1009,0.1008,-0.1052,-0.1158,-0.1302,-0.15,-0.1619,-0.1601,-0.15,-0.1368,-0.111,-0.0555,-0.0325,0.024,0.0627,0.1011,0.1148,0.1354,0.1273,0.145,0.1493,0.1494,0.1615,0.1065,0.1281,0.128,0.1279,0.1278,0.1277,0,-0.1095,-0.1262,-0.1484,-0.1632,-0.1711,-0.1736,-0.1535,-0.128,-0.0783,-0.0333,0.0204,0.0946,0.1282,0.1508,0.1725,0.1904,0.1941,0.1983,0.2037,0.2104,0.164,0.1648,0.1953,0.1953,0.1953,0.1953,0.1953,0.1952,-0.1151,-0.1359,-0.1506,-0.1667,-0.1721,-0.1524,-0.1294,-0.0852,-0.0418,0.0413,0.0967,0.1394,0.1714,0.2113,0.2345,0.2385,0.2577,0.254,0.2632,0.2317,0.227,0.2226,0.2249,0.2675,0.2676,0.311,0.3114,0.3117]}],[{"header":{"parameterUnit":"m.s-1","parameterCategory":2,"la1":30.2991,"la2":30.254,"lo1":-89.0895,"lo2":-89.0444,"dy":0.0017,"dx":0.0017,"nx":28,"ny":28,"refTime":"2024-07-17T21:00:00:Z","depth":"2","parameterNumber":2,"parameterNumberName":"U-component_of_CURRENTS"},"data":[0,0,0,0,0,0,0,0,0,0,0,0,0,0,0,0,0,0,0,0,0,0,0,0,0,0,0,0,0,0,0,0,0,0,0,0,0,0,0,0,0,0,0,0,0,0,0,0,0,0,0,0,0,0,0,0,0,0,-0.2493,-0.2493,0,-0.254,-0.254,-0.2541,-0.2508,-0.2506,-0.2505,-0.2503,-0.252,-0.2522,-0.2524,0,0,0,0,0,0,0,0,0,0,0,0,0,-0.2468,-0.2468,-0.2493,-0.2493,-0.2494,-0.254,-0.254,-0.2541,-0.2509,-0.2506,-0.2504,-0.2502,-0.2519,-0.2522,-0.2524,0,0,0,0,0,0,0,0,0,0,0,0,0,-0.2496,-0.2468,-0.2493,-0.248,-0.248,-0.2539,-0.254,-0.2542,-0.2509,-0.2506,-0.2504,-0.2501,-0.2518,-0.2521,-0.2524,-0.2596,0,0,-0.2534,-0.2535,0,0,0,0,0,0,0,0,-0.2494,-0.2497,-0.2482,-0.2481,-0.248,-0.2513,-0.2538,-0.2557,-0.251,-0.2501,-0.2503,-0.25,-0.2515,-0.2518,-0.2537,-0.2597,-0.2598,-0.2534,-0.2536,-0.2537,-0.2538,0,0,0,0,0,0,0,-0.2492,-0.2495,-0.2514,-0.2482,-0.2482,-0.2504,-0.2505,-0.2542,-0.2524,-0.2502,-0.2499,-0.25,-0.2514,-0.2535,-0.2537,-0.2598,-0.2534,-0.2537,-0.2539,-0.254,-0.2663,-0.2664,0,0,0,0,0,0,-0.2478,-0.2493,-0.2513,-0.2516,-0.2477,-0.2506,-0.2507,-0.2508,-0.2524,-0.2523,-0.2502,-0.2498,-0.253,-0.2534,-0.2538,-0.2551,-0.2537,-0.254,-0.2542,-0.2662,-0.2663,-0.2665,0,0,0,0,0,0,-0.2478,-0.248,-0.2511,-0.2503,-0.2508,-0.2508,-0.251,-0.251,-0.2531,-0.2524,-0.2523,-0.2522,-0.2529,-0.2533,-0.2579,-0.2554,-0.2542,-0.2545,-0.266,-0.2662,-0.2664,-0.2624,0,0,0,0,0,0,-0.2477,-0.2479,-0.2486,-0.2502,-0.2508,-0.2539,-0.2512,-0.2512,-0.2534,-0.2529,-0.2542,-0.254,-0.2527,-0.2575,-0.2582,-0.2558,-0.2547,-0.2658,-0.2661,-0.2663,-0.2623,-0.2624,-0.2625,0,0,0,0,0,-0.2476,-0.2495,-0.2486,-0.2488,-0.2513,-0.254,-0.2546,-0.2539,-0.2537,-0.255,-0.2567,-0.254,-0.2595,-0.258,-0.2588,-0.2563,-0.2657,-0.266,-0.2663,-0.2623,-0.2624,-0.2625,0,0,0,0,0,0,-0.2481,-0.2494,-0.2484,-0.2503,-0.2514,-0.2532,-0.2544,-0.2556,-0.2585,-0.2582,-0.258,-0.2581,-0.2602,-0.2616,-0.2599,-0.2611,-0.2614,-0.2619,-0.258,-0.2582,-0.2582,-0.2565,-0.255,0,0,0,0,0,-0.2487,-0.2504,-0.2513,-0.2526,-0.253,-0.2545,-0.256,-0.2563,-0.2585,-0.2595,-0.2603,-0.2616,-0.2627,-0.2631,-0.2648,-0.2679,-0.267,-0.2666,-0.2667,-0.2667,-0.2662,-0.2651,-0.2649,-0.2675,-0.2675,-0.2675,0,0,-0.2489,-0.25,-0.2506,-0.2529,-0.2534,-0.2546,-0.2548,-0.2573,-0.2582,-0.2596,-0.2617,-0.2629,-0.2642,-0.2652,-0.2661,-0.2655,-0.2655,-0.2671,-0.267,-0.2665,-0.2654,-0.265,-0.2648,-0.2677,-0.2677,-0.2676,0,0,-0.2492,-0.251,-0.2515,-0.2534,-0.2551,-0.2563,-0.2574,-0.2599,-0.2603,-0.2644,-0.2637,-0.2643,-0.2683,-0.2661,-0.2661,-0.2693,-0.2666,-0.2699,-0.2677,-0.2666,-0.2662,-0.2659,-0.263,-0.2625,-0.269,-0.269,-0.269,0,-0.2482,-0.2494,-0.2522,-0.2534,-0.2543,-0.2569,-0.2575,-0.2598,-0.2637,-0.2642,-0.2641,-0.2674,-0.2675,-0.2668,-0.2661,-0.2685,-0.268,-0.2661,-0.2661,-0.2658,-0.2656,-0.2627,-0.2622,-0.2688,-0.2688,-0.2689,-0.2689,0,-0.248,-0.2499,-0.2507,-0.2521,-0.2546,-0.2561,-0.2586,-0.2613,-0.2627,-0.2638,-0.265,-0.2659,-0.2667,-0.2661,-0.2667,-0.2647,-0.2649,-0.2664,-0.2645,-0.2649,-0.2621,-0.2616,-0.2686,-0.2687,-0.2687,-0.2687,0,0,-0.2411,-0.2484,-0.2482,-0.2496,-0.254,-0.2558,-0.2585,-0.2603,-0.2617,-0.2637,-0.2637,-0.2637,-0.2639,-0.2641,-0.264,-0.2621,-0.2583,-0.2632,-0.2632,-0.2579,-0.2549,-0.2456,-0.2442,-0.26,-0.2599,-0.2599,-0.2529,0,-0.2378,-0.2406,-0.2452,-0.2476,-0.2487,-0.2537,-0.2561,-0.2595,-0.2616,-0.2633,-0.2627,-0.2635,-0.2632,-0.2631,-0.261,-0.2609,-0.2571,-0.2599,-0.2575,-0.2573,-0.247,-0.2433,-0.2254,-0.217,-0.2524,-0.2523,-0.2523,0,-0.2335,-0.2368,-0.2385,-0.2458,-0.2464,-0.2487,-0.2529,-0.256,-0.2597,-0.2615,-0.2619,-0.2631,-0.2611,-0.261,-0.2572,-0.2596,-0.2562,-0.2547,-0.2544,-0.2467,-0.2471,-0.223,-0.2147,-0.2514,-0.2515,-0.2516,-0.2516,0,-0.2257,-0.2317,-0.233,-0.2353,-0.2435,-0.2451,-0.249,-0.2542,-0.2571,-0.26,-0.262,-0.2611,-0.2608,-0.258,-0.2543,-0.2565,-0.2492,-0.2522,-0.2395,-0.2389,-0.2234,-0.2214,-0.2467,-0.2467,-0.2468,-0.2468,-0.2468,0,-0.2202,-0.2213,-0.2299,-0.2309,-0.2334,-0.2409,-0.2437,-0.248,-0.2539,-0.2555,-0.26,-0.2595,-0.2603,-0.2569,-0.2534,-0.2434,-0.248,-0.237,-0.2357,-0.2216,-0.2196,-0.2506,-0.2511,-0.2465,-0.2466,-0.2466,-0.2467,0,-0.2111,-0.2169,-0.2192,-0.2273,-0.2299,-0.2315,-0.2412,-0.2434,-0.2507,-0.2529,-0.2539,-0.2582,-0.2525,-0.2503,-0.2446,-0.2407,-0.2335,-0.228,-0.2101,-0.2068,-0.2243,-0.2248,-0.2145,-0.2141,-0.2137,-0.2134,-0.2132,0,-0.2066,-0.2068,-0.2145,-0.2163,-0.2197,-0.2249,-0.2283,-0.239,-0.2416,-0.2498,-0.2487,-0.2474,-0.2409,-0.2303,-0.2206,-0.2097,-0.2198,-0.1905,-0.1908,-0.2208,-0.2207,-0.2217,-0.2226,-0.1687,-0.1681,-0.1676,-0.1672,0,-0.1974,-0.1999,-0.2026,-0.2053,-0.2089,-0.2134,-0.219,-0.2213,-0.2319,-0.2351,-0.2353,-0.2316,-0.2205,-0.2009,-0.1881,-0.1805,-0.1916,-0.1805,-0.2146,-0.1803,-0.1772,-0.1773,-0.1798,-0.163,-0.1634,-0.1637,-0.164,-0.1641,-0.1893,-0.1885,-0.1913,-0.1926,-0.1965,-0.1969,-0.1937,-0.2021,-0.2041,-0.204,-0.2137,-0.2032,-0.1988,-0.1683,-0.1564,-0.1464,-0.1598,-0.1554,-0.1571,-0.1592,-0.1557,-0.1523,-0.1327,-0.1329,-0.1331,-0.1333,-0.1335,0,-0.1781,-0.1779,-0.1784,-0.1778,-0.1734,-0.1808,-0.1826,-0.1768,-0.1725,-0.179,-0.1782,-0.159,-0.1442,-0.1382,-0.1149,-0.1109,-0.1114,-0.1076,-0.1095,-0.1136,-0.1172,-0.112,-0.0771,-0.077,-0.0769,-0.0767,0,0,-0.1725,-0.1677,-0.167,-0.154,-0.152,-0.1389,-0.1352,-0.1331,-0.1331,-0.1282,-0.1257,-0.1394,-0.1362,-0.1109,-0.1016,-0.0852,-0.0992,-0.08,-0.1245,-0.1308,-0.1344,-0.143,-0.1391,0,0,0,0,0]},{"header":{"parameterUnit":"m.s-1","parameterCategory":2,"la1":30.2991,"la2":30.254,"lo1":-89.0895,"lo2":-89.0444,"dy":0.0017,"dx":0.0017,"nx":28,"ny":28,"refTime":"2024-07-17T21:00:00:Z","depth":"2","parameterNumber":3,"parameterNumberName":"V-component_of_CURRENTS"},"data":[0,0,0,0,0,0,0,0,0,0,0,0,0,0,0,0,0,0,0,0,0,0,0,0,0,0,0,0,0,0,0,0,0,0,0,0,0,0,0,0,0,0,0,0,0,0,0,0,0,0,0,0,0,0,0,0,0,0,-0.0384,-0.0384,0,-0.031,-0.0309,-0.0308,-0.0256,-0.0255,-0.0255,-0.0254,-0.0127,-0.0124,-0.0121,0,0,0,0,0,0,0,0,0,0,0,0,0,-0.0423,-0.0423,-0.0384,-0.0383,-0.0382,-0.031,-0.0309,-0.0308,-0.0256,-0.0255,-0.0255,-0.0254,-0.0128,-0.0124,-0.0121,0,0,0,0,0,0,0,0,0,0,0,0,0,-0.0384,-0.0423,-0.0385,-0.0347,-0.0343,-0.031,-0.0309,-0.0308,-0.0256,-0.0255,-0.0254,-0.0254,-0.0129,-0.0125,-0.012,-0.0108,0,0,-0.0107,-0.0105,0,0,0,0,0,0,0,0,-0.0386,-0.0383,-0.0353,-0.0349,-0.0345,-0.0291,-0.0276,-0.0238,-0.0256,-0.029,-0.0254,-0.0253,-0.0177,-0.0168,-0.0158,-0.0102,-0.0097,-0.0106,-0.0104,-0.0102,-0.0101,0,0,0,0,0,0,0,-0.0389,-0.0385,-0.0356,-0.0352,-0.0347,-0.0314,-0.0308,-0.0268,-0.0238,-0.0287,-0.0283,-0.0273,-0.0174,-0.0162,-0.0154,-0.0095,-0.0107,-0.0103,-0.01,-0.0098,0.0064,0.0065,0,0,0,0,0,0,-0.0401,-0.0388,-0.0358,-0.0353,-0.0363,-0.0314,-0.0307,-0.0309,-0.0239,-0.0228,-0.0274,-0.0271,-0.017,-0.016,-0.015,-0.0095,-0.0102,-0.0098,-0.0095,0.0062,0.0064,0.0066,0,0,0,0,0,0,-0.0402,-0.0399,-0.0361,-0.0368,-0.036,-0.0314,-0.0317,-0.0308,-0.0294,-0.023,-0.0218,-0.0267,-0.0169,-0.0156,-0.0094,-0.0091,-0.0096,-0.0092,0.006,0.0063,0.0065,-0.0009,0,0,0,0,0,0,-0.0404,-0.04,-0.0409,-0.0369,-0.036,-0.0347,-0.0317,-0.0307,-0.0289,-0.0284,-0.022,-0.0208,-0.0168,-0.01,-0.0089,-0.0085,-0.0088,0.0058,0.0061,0.0064,-0.0009,-0.0009,-0.001,0,0,0,0,0,-0.0405,-0.042,-0.041,-0.0406,-0.0373,-0.0347,-0.034,-0.0304,-0.0289,-0.0288,-0.0227,-0.021,-0.0072,-0.0096,-0.0083,-0.0078,0.0056,0.006,0.0064,-0.0008,-0.0009,-0.001,0,0,0,0,0,0,-0.0445,-0.0414,-0.0403,-0.0409,-0.0382,-0.0338,-0.0335,-0.031,-0.0264,-0.0256,-0.0194,-0.0177,-0.0123,-0.008,-0.0108,-0.0015,-0.0003,0.0003,-0.0062,-0.0062,-0.0063,-0.008,-0.0085,0,0,0,0,0,-0.0458,-0.0461,-0.0423,-0.0431,-0.0419,-0.0379,-0.0365,-0.0341,-0.0294,-0.0275,-0.0226,-0.0161,-0.0099,-0.0066,-0.0013,0.0032,0.0072,0.0051,0.005,0.0049,0.0049,0.011,0.0114,0.0078,0.0078,0.0078,0,0,-0.0477,-0.046,-0.0463,-0.0439,-0.0417,-0.0401,-0.0369,-0.0354,-0.0333,-0.0267,-0.0225,-0.017,-0.0086,-0.0032,-0.0004,0.0004,0.0083,0.0054,0.0052,0.0053,0.0114,0.0117,0.012,0.0081,0.008,0.008,0,0,-0.0512,-0.0501,-0.0511,-0.0489,-0.0458,-0.0427,-0.0424,-0.038,-0.0354,-0.0307,-0.0246,-0.0182,-0.0102,-0.0037,0.0008,0.004,0.0072,0.0056,0.0039,0.0098,0.01,0.0103,0.0153,0.0161,0.006,0.006,0.0059,0,-0.0537,-0.0541,-0.051,-0.0506,-0.0492,-0.044,-0.0439,-0.0402,-0.0342,-0.0315,-0.03,-0.0162,-0.0101,-0.0014,0.0002,0.0034,0.0068,0.0024,0.0092,0.0096,0.01,0.0151,0.016,0.0056,0.0057,0.0057,0.0057,0,-0.0573,-0.057,-0.0574,-0.0549,-0.0529,-0.0523,-0.0466,-0.0439,-0.04,-0.0356,-0.028,-0.0191,-0.0107,-0.0074,-0.0025,0.0041,0.0056,0.0074,0.0079,0.0098,0.0152,0.0163,0.0052,0.0053,0.0054,0.0055,0,0,-0.0635,-0.0608,-0.0605,-0.0604,-0.0553,-0.0543,-0.0502,-0.0451,-0.0425,-0.0357,-0.0314,-0.0199,-0.0157,-0.0101,-0.0034,0.0026,0.0084,0.0055,0.006,0.0079,0.0205,0.0235,0.025,0.0102,0.0104,0.0105,0.0228,0,-0.0672,-0.069,-0.0651,-0.0651,-0.0654,-0.0589,-0.0558,-0.0502,-0.0442,-0.0385,-0.0285,-0.022,-0.0164,-0.0129,-0.0059,0.0049,0.011,0.0048,0.0208,0.0213,0.0216,0.0263,0.0238,0.0347,0.0239,0.0241,0.0242,0,-0.0707,-0.0717,-0.0737,-0.0709,-0.0703,-0.0688,-0.0633,-0.0597,-0.0494,-0.0448,-0.0361,-0.0283,-0.017,-0.0138,0.0047,-0.0,0.0096,0.0176,0.0183,0.0244,0.0264,0.0317,0.0372,0.0261,0.0259,0.0258,0.0257,0,-0.0772,-0.0764,-0.0789,-0.0781,-0.0743,-0.0736,-0.0709,-0.0624,-0.0587,-0.049,-0.045,-0.0315,-0.0237,-0.0109,0.0068,0.0053,0.0263,0.0265,0.0385,0.0388,0.0418,0.0421,0.039,0.039,0.0389,0.0389,0.0389,0,-0.082,-0.0832,-0.0827,-0.0842,-0.0866,-0.081,-0.08,-0.0751,-0.0663,-0.0612,-0.0496,-0.0414,-0.0227,-0.0079,0.0059,0.0265,0.0261,0.0396,0.0429,0.0394,0.0393,0.0358,0.0352,0.0394,0.0393,0.0392,0.0391,0,-0.0874,-0.0871,-0.0902,-0.0897,-0.0899,-0.0918,-0.0874,-0.0849,-0.0768,-0.0697,-0.0669,-0.0474,-0.0275,-0.0084,0.0152,0.0264,0.0443,0.0515,0.0458,0.0483,0.0526,0.0516,0.0653,0.0655,0.0657,0.0659,0.066,0,-0.0899,-0.0926,-0.0963,-0.0989,-0.099,-0.1001,-0.0994,-0.0919,-0.0875,-0.0719,-0.0678,-0.0473,-0.03,0.0052,0.0288,0.0533,0.0525,0.0634,0.061,0.0538,0.0557,0.0544,0.0531,0.0621,0.0622,0.0623,0.0624,0,-0.0948,-0.0967,-0.1003,-0.1067,-0.1086,-0.1093,-0.1073,-0.1056,-0.0942,-0.0865,-0.0699,-0.0553,-0.0185,0.0111,0.0426,0.0557,0.0587,0.0658,0.0622,0.0551,0.0517,0.0532,0.052,0.063,0.063,0.0629,0.0629,0.0629,-0.0981,-0.1029,-0.1081,-0.1139,-0.1162,-0.1169,-0.1169,-0.1115,-0.1053,-0.0899,-0.0752,-0.0501,-0.0186,0.0282,0.0508,0.0707,0.0698,0.073,0.0724,0.0718,0.0686,0.0655,0.0789,0.0789,0.0789,0.079,0.079,0,-0.1015,-0.1073,-0.1137,-0.12,-0.123,-0.1222,-0.1198,-0.1158,-0.1092,-0.0903,-0.0744,-0.0402,-0.0054,0.0274,0.0613,0.0799,0.0768,0.0808,0.0738,0.0731,0.0724,0.0689,0.0795,0.0796,0.0796,0.0797,0,0,-0.1034,-0.1113,-0.1157,-0.1238,-0.127,-0.1273,-0.1258,-0.1192,-0.1056,-0.0867,-0.0662,-0.0418,-0.0006,0.0223,0.0471,0.0655,0.0631,0.0655,0.0631,0.0511,0.0503,0.0662,0.0597,0,0,0,0,0]}],[{"header":{"parameterUnit":"m.s-1","parameterCategory":2,"la1":30.2991,"la2":30.254,"lo1":-89.0895,"lo2":-89.0444,"dy":0.0017,"dx":0.0017,"nx":28,"ny":28,"refTime":"2024-07-17T21:00:00:Z","depth":"4","parameterNumber":2,"parameterNumberName":"U-component_of_CURRENTS"},"data":[0,0,0,0,0,0,0,0,0,0,0,0,0,0,0,0,0,0,0,0,0,0,0,0,0,0,0,0,0,0,0,0,0,0,0,0,0,0,0,0,0,0,0,0,0,0,0,0,0,0,0,0,0,0,0,0,0,0,-0.1694,-0.1694,0,-0.1726,-0.1727,-0.1727,-0.1741,-0.1741,-0.174,-0.174,-0.1773,-0.1774,-0.1775,0,0,0,0,0,0,0,0,0,0,0,0,0,-0.1698,-0.1698,-0.1694,-0.1694,-0.1694,-0.1726,-0.1727,-0.1727,-0.1741,-0.174,-0.174,-0.174,-0.1772,-0.1773,-0.1775,0,0,0,0,0,0,0,0,0,0,0,0,0,-0.1711,-0.1697,-0.1694,-0.1704,-0.1705,-0.1726,-0.1727,-0.1727,-0.1741,-0.174,-0.174,-0.174,-0.1772,-0.1773,-0.1775,-0.179,0,0,-0.178,-0.178,0,0,0,0,0,0,0,0,-0.171,-0.1711,-0.1702,-0.1703,-0.1705,-0.1728,-0.174,-0.1748,-0.1741,-0.1729,-0.174,-0.174,-0.1757,-0.176,-0.1768,-0.1791,-0.1793,-0.178,-0.1781,-0.1781,-0.1782,0,0,0,0,0,0,0,-0.1709,-0.171,-0.1708,-0.1703,-0.1704,-0.1726,-0.1727,-0.1742,-0.1745,-0.173,-0.173,-0.1732,-0.1758,-0.1767,-0.1769,-0.1793,-0.178,-0.1781,-0.1782,-0.1783,-0.1858,-0.1859,0,0,0,0,0,0,-0.17,-0.1709,-0.1707,-0.1709,-0.1705,-0.1725,-0.1727,-0.1722,-0.1745,-0.1748,-0.1732,-0.1733,-0.1764,-0.1767,-0.177,-0.1836,-0.1781,-0.1783,-0.1784,-0.1857,-0.1858,-0.1859,0,0,0,0,0,0,-0.17,-0.1699,-0.1706,-0.1709,-0.1711,-0.1725,-0.172,-0.1723,-0.1756,-0.1747,-0.175,-0.1765,-0.1764,-0.1768,-0.1806,-0.1835,-0.1783,-0.1785,-0.1856,-0.1857,-0.1859,-0.1937,0,0,0,0,0,0,-0.17,-0.1699,-0.1714,-0.1708,-0.171,-0.1728,-0.172,-0.1723,-0.1755,-0.1757,-0.1775,-0.1776,-0.1764,-0.1804,-0.1807,-0.1836,-0.1786,-0.1854,-0.1856,-0.1858,-0.1933,-0.1941,-0.1948,0,0,0,0,0,-0.17,-0.1717,-0.1715,-0.1716,-0.1723,-0.1729,-0.1733,-0.1743,-0.1757,-0.1773,-0.1792,-0.1777,-0.1818,-0.1806,-0.181,-0.184,-0.1853,-0.1856,-0.1858,-0.1929,-0.1939,-0.1947,0,0,0,0,0,0,-0.1727,-0.172,-0.1717,-0.1731,-0.1734,-0.1731,-0.1756,-0.1763,-0.1793,-0.1808,-0.18,-0.1803,-0.184,-0.1833,-0.182,-0.1865,-0.183,-0.1833,-0.1883,-0.1892,-0.1899,-0.1903,-0.1787,0,0,0,0,0,-0.1738,-0.1753,-0.174,-0.1756,-0.1759,-0.1766,-0.1779,-0.1786,-0.18,-0.1814,-0.1825,-0.1839,-0.185,-0.1867,-0.1869,-0.1909,-0.1885,-0.1926,-0.1934,-0.194,-0.1946,-0.1946,-0.1954,-0.1867,-0.1867,-0.1867,0,0,-0.1757,-0.1754,-0.1765,-0.1765,-0.1772,-0.1789,-0.1774,-0.1803,-0.1829,-0.1814,-0.1868,-0.1867,-0.1864,-0.1898,-0.1914,-0.1901,-0.1949,-0.1944,-0.1949,-0.1951,-0.1949,-0.1958,-0.1965,-0.1869,-0.1869,-0.1868,0,0,-0.1784,-0.1794,-0.1808,-0.1818,-0.183,-0.1833,-0.1847,-0.1859,-0.1877,-0.1919,-0.1911,-0.1936,-0.196,-0.1962,-0.1966,-0.202,-0.1983,-0.2019,-0.2072,-0.2073,-0.208,-0.2086,-0.2052,-0.2054,-0.203,-0.203,-0.203,0,-0.1801,-0.1813,-0.1816,-0.1833,-0.1848,-0.1856,-0.1877,-0.1902,-0.1929,-0.1946,-0.1946,-0.1985,-0.1989,-0.2023,-0.2042,-0.2039,-0.2019,-0.2041,-0.2083,-0.2089,-0.2094,-0.2057,-0.2059,-0.2034,-0.2034,-0.2033,-0.2033,0,-0.1823,-0.1852,-0.1866,-0.1885,-0.1909,-0.1931,-0.1951,-0.1986,-0.2012,-0.2024,-0.2066,-0.2072,-0.2089,-0.2098,-0.2094,-0.2132,-0.2098,-0.2087,-0.2062,-0.2107,-0.2065,-0.2066,-0.204,-0.2038,-0.2037,-0.2036,0,0,-0.1785,-0.1862,-0.1867,-0.1892,-0.1938,-0.1949,-0.2011,-0.2041,-0.2075,-0.2112,-0.2144,-0.2181,-0.2179,-0.2182,-0.2177,-0.2192,-0.2211,-0.2166,-0.2164,-0.2133,-0.2189,-0.2032,-0.2016,-0.2212,-0.2213,-0.2214,-0.2141,0,-0.1788,-0.1836,-0.1877,-0.1934,-0.1955,-0.2002,-0.2049,-0.2094,-0.2127,-0.2164,-0.2186,-0.2211,-0.2211,-0.2221,-0.2241,-0.2215,-0.2218,-0.223,-0.2148,-0.2145,-0.2001,-0.2014,-0.2216,-0.2141,-0.2141,-0.2141,-0.2141,0,-0.1768,-0.1808,-0.1867,-0.1949,-0.1962,-0.2008,-0.2074,-0.2118,-0.218,-0.2207,-0.2247,-0.2253,-0.2287,-0.2275,-0.2267,-0.2275,-0.2243,-0.2222,-0.2218,-0.2044,-0.1988,-0.2088,-0.2141,-0.2141,-0.2141,-0.2141,-0.2141,0,-0.1704,-0.179,-0.1841,-0.187,-0.1967,-0.201,-0.2058,-0.213,-0.2165,-0.2231,-0.2255,-0.229,-0.2299,-0.2289,-0.2249,-0.2264,-0.2215,-0.2222,-0.2045,-0.2033,-0.2164,-0.2158,-0.2212,-0.2212,-0.2212,-0.2212,-0.2213,0,-0.1661,-0.1702,-0.1824,-0.1848,-0.1904,-0.1985,-0.2043,-0.2098,-0.2173,-0.2193,-0.2268,-0.2267,-0.2307,-0.2281,-0.225,-0.2127,-0.2209,-0.2044,-0.2005,-0.2195,-0.2194,-0.2163,-0.2158,-0.221,-0.221,-0.2211,-0.2211,0,-0.1579,-0.1662,-0.1723,-0.1841,-0.1878,-0.1916,-0.2026,-0.2054,-0.2146,-0.2173,-0.2194,-0.2253,-0.22,-0.2198,-0.2158,-0.2095,-0.2015,-0.1951,-0.2126,-0.21,-0.1834,-0.1834,-0.175,-0.1744,-0.1739,-0.1735,-0.1731,0,-0.1539,-0.1568,-0.1698,-0.173,-0.1788,-0.1864,-0.1903,-0.2019,-0.2042,-0.2128,-0.2114,-0.2117,-0.2122,-0.1933,-0.1959,-0.1861,-0.1845,-0.1805,-0.1853,-0.1816,-0.1788,-0.1797,-0.1804,-0.1723,-0.1722,-0.172,-0.1719,0,-0.146,-0.1523,-0.1576,-0.1633,-0.169,-0.1742,-0.1808,-0.1813,-0.1916,-0.2028,-0.1971,-0.1932,-0.1861,-0.1812,-0.1738,-0.1682,-0.184,-0.1751,-0.1763,-0.1807,-0.1782,-0.1761,-0.1774,-0.1701,-0.1703,-0.1705,-0.1706,0,-0.14,-0.1413,-0.1481,-0.1511,-0.1575,-0.1576,-0.1639,-0.1654,-0.1695,-0.1804,-0.177,-0.1773,-0.1828,-0.1713,-0.1646,-0.1571,-0.1559,-0.1539,-0.1562,-0.1582,-0.1559,-0.1505,-0.1294,0,0,0,0,0,-0.133,-0.1322,-0.1345,-0.1362,-0.1412,-0.1437,-0.1546,-0.1613,-0.172,-0.1632,-0.17,-0.1622,-0.1532,-0.1544,-0.1423,-0.1552,-0.1556,-0.1409,-0.1545,-0.1601,-0.1622,-0.161,0,0,0,0,0,0,-0.1283,-0.1307,-0.1299,-0.1218,-0.1189,-0.1221,-0.1281,-0.1365,-0.1335,-0.1456,-0.1408,-0.1513,-0.1437,-0.154,-0.1375,-0.1376,-0.143,-0.1429,-0.1425,-0.1589,-0.1608,-0.1625,-0.162,0,0,0,0,0]},{"header":{"parameterUnit":"m.s-1","parameterCategory":2,"la1":30.2991,"la2":30.254,"lo1":-89.0895,"lo2":-89.0444,"dy":0.0017,"dx":0.0017,"nx":28,"ny":28,"refTime":"2024-07-17T21:00:00:Z","depth":"4","parameterNumber":3,"parameterNumberName":"V-component_of_CURRENTS"},"data":[0,0,0,0,0,0,0,0,0,0,0,0,0,0,0,0,0,0,0,0,0,0,0,0,0,0,0,0,0,0,0,0,0,0,0,0,0,0,0,0,0,0,0,0,0,0,0,0,0,0,0,0,0,0,0,0,0,0,-0.0316,-0.0315,0,-0.0277,-0.0277,-0.0276,-0.025,-0.025,-0.025,-0.025,-0.0192,-0.019,-0.0189,0,0,0,0,0,0,0,0,0,0,0,0,0,-0.0321,-0.0321,-0.0316,-0.0315,-0.0315,-0.0277,-0.0277,-0.0276,-0.025,-0.025,-0.025,-0.0249,-0.0192,-0.019,-0.0189,0,0,0,0,0,0,0,0,0,0,0,0,0,-0.0304,-0.0321,-0.0316,-0.0297,-0.0295,-0.0277,-0.0277,-0.0276,-0.025,-0.025,-0.025,-0.0249,-0.0193,-0.0191,-0.0189,-0.0182,0,0,-0.0182,-0.0182,0,0,0,0,0,0,0,0,-0.0305,-0.0304,-0.03,-0.0298,-0.0296,-0.0268,-0.0257,-0.0244,-0.025,-0.0268,-0.025,-0.0249,-0.0215,-0.0211,-0.0206,-0.018,-0.0177,-0.0182,-0.0181,-0.018,-0.018,0,0,0,0,0,0,0,-0.0307,-0.0305,-0.0301,-0.03,-0.0297,-0.0275,-0.0272,-0.0254,-0.0244,-0.0266,-0.0264,-0.0259,-0.0214,-0.0208,-0.0204,-0.0176,-0.0182,-0.018,-0.0179,-0.0178,-0.012,-0.012,0,0,0,0,0,0,-0.0314,-0.0307,-0.0302,-0.03,-0.03,-0.0275,-0.0272,-0.0277,-0.0244,-0.0239,-0.026,-0.0258,-0.0211,-0.0206,-0.0202,-0.0163,-0.018,-0.0178,-0.0177,-0.012,-0.012,-0.0119,0,0,0,0,0,0,-0.0314,-0.0314,-0.0304,-0.0301,-0.0298,-0.0275,-0.0281,-0.0277,-0.0272,-0.0239,-0.0234,-0.026,-0.0211,-0.0205,-0.0182,-0.0162,-0.0177,-0.0175,-0.0121,-0.012,-0.012,-0.0105,0,0,0,0,0,0,-0.0315,-0.0315,-0.0324,-0.0302,-0.0299,-0.0301,-0.0281,-0.0276,-0.027,-0.0268,-0.0238,-0.0232,-0.021,-0.0186,-0.018,-0.0159,-0.0174,-0.0121,-0.012,-0.012,-0.0106,-0.0104,-0.0102,0,0,0,0,0,-0.0315,-0.0329,-0.0325,-0.0324,-0.0312,-0.0301,-0.0298,-0.0279,-0.027,-0.0273,-0.0245,-0.0233,-0.0178,-0.0184,-0.0178,-0.0156,-0.0121,-0.0121,-0.012,-0.0106,-0.0104,-0.0102,0,0,0,0,0,0,-0.034,-0.0327,-0.0322,-0.0333,-0.0321,-0.0297,-0.0299,-0.0284,-0.0266,-0.0264,-0.023,-0.0223,-0.0196,-0.0183,-0.0191,-0.0138,-0.0147,-0.0145,-0.0138,-0.0136,-0.0134,-0.0135,-0.0172,0,0,0,0,0,-0.035,-0.0358,-0.0339,-0.035,-0.0346,-0.0324,-0.0318,-0.0306,-0.0284,-0.0276,-0.0253,-0.0223,-0.0188,-0.017,-0.015,-0.0122,-0.0098,-0.0104,-0.0102,-0.0101,-0.0098,-0.0036,-0.0028,-0.0117,-0.0117,-0.0117,0,0,-0.0364,-0.0358,-0.0364,-0.0356,-0.0346,-0.0337,-0.032,-0.0317,-0.0301,-0.0273,-0.0251,-0.0223,-0.0183,-0.0148,-0.0134,-0.0133,-0.0066,-0.01,-0.0099,-0.0097,-0.0034,-0.0025,-0.0018,-0.0116,-0.0116,-0.0117,0,0,-0.0391,-0.0391,-0.0402,-0.0391,-0.0378,-0.0358,-0.0358,-0.0336,-0.032,-0.0299,-0.0263,-0.0217,-0.019,-0.0135,-0.0106,-0.0084,-0.0065,-0.0088,-0.0069,-0.0008,0.0,0.0008,0.004,0.005,-0.0079,-0.0079,-0.0079,0,-0.0411,-0.0418,-0.0404,-0.0404,-0.0395,-0.0367,-0.0367,-0.0343,-0.0315,-0.0292,-0.0296,-0.0211,-0.0174,-0.0094,-0.0082,-0.0075,-0.0057,-0.0077,-0.0004,0.0004,0.0012,0.0043,0.0054,-0.0078,-0.0078,-0.0078,-0.0078,0,-0.0438,-0.044,-0.0445,-0.0432,-0.042,-0.042,-0.0381,-0.0364,-0.0341,-0.0307,-0.0249,-0.0194,-0.0138,-0.0112,-0.0087,-0.0009,-0.0021,-0.0014,-0.0007,0.0022,0.0052,0.0063,-0.0077,-0.0077,-0.0077,-0.0078,0,0,-0.0484,-0.047,-0.047,-0.0466,-0.0436,-0.0429,-0.0396,-0.0353,-0.0324,-0.0283,-0.0239,-0.0151,-0.0121,-0.0086,-0.004,0.0025,0.0101,0.0025,0.0028,0.006,0.021,0.0176,0.0185,0.0117,0.0119,0.0121,0.0206,0,-0.0509,-0.0523,-0.0499,-0.0495,-0.0495,-0.045,-0.0421,-0.0374,-0.0331,-0.0282,-0.0196,-0.0147,-0.011,-0.0083,-0.0008,0.0065,0.0132,0.0076,0.0174,0.0176,0.0147,0.0198,0.0128,0.0215,0.0217,0.0219,0.0221,0,-0.0533,-0.0539,-0.0554,-0.0523,-0.0519,-0.0509,-0.0455,-0.0424,-0.0335,-0.0301,-0.0223,-0.017,-0.0061,-0.0046,0.0113,0.0067,0.014,0.02,0.0205,0.0177,0.0164,0.0183,0.0242,0.024,0.0238,0.0237,0.0236,0,-0.0573,-0.0566,-0.0582,-0.0577,-0.0543,-0.0536,-0.0511,-0.0437,-0.0402,-0.0316,-0.0287,-0.0162,-0.0106,0.0008,0.0131,0.012,0.029,0.0292,0.0336,0.0333,0.033,0.0322,0.0414,0.0414,0.0414,0.0414,0.0414,0,-0.0597,-0.0605,-0.0609,-0.0619,-0.0626,-0.0584,-0.0564,-0.052,-0.0448,-0.0408,-0.0307,-0.0247,-0.0091,0.0022,0.013,0.0262,0.0294,0.035,0.0364,0.0331,0.0322,0.0338,0.0328,0.0417,0.0416,0.0416,0.0415,0,-0.0623,-0.0629,-0.0651,-0.0648,-0.0649,-0.0656,-0.0617,-0.0593,-0.0526,-0.0474,-0.0451,-0.0302,-0.0159,-0.0006,0.0184,0.0252,0.0385,0.0428,0.0368,0.0375,0.0385,0.0374,0.0481,0.0481,0.048,0.048,0.048,0,-0.0633,-0.0654,-0.0691,-0.0712,-0.0717,-0.0717,-0.0712,-0.0646,-0.0617,-0.0504,-0.0482,-0.0332,-0.0227,0.0015,0.0176,0.0376,0.0405,0.0455,0.0441,0.0394,0.0397,0.0387,0.0377,0.048,0.048,0.048,0.048,0,-0.0652,-0.0681,-0.0705,-0.0764,-0.0785,-0.0789,-0.078,-0.076,-0.0679,-0.0621,-0.0499,-0.0356,-0.0191,0.0006,0.0161,0.0308,0.0409,0.0453,0.0454,0.0443,0.0394,0.0395,0.0386,0.0479,0.0479,0.0479,0.0479,0,-0.0669,-0.0702,-0.0754,-0.0796,-0.0837,-0.0859,-0.0838,-0.0787,-0.0739,-0.0614,-0.0573,-0.0376,-0.0247,-0.0027,0.0121,0.0254,0.0286,0.0308,0.0317,0.032,0.0245,0.0158,0.0196,0,0,0,0,0,-0.0678,-0.0725,-0.0775,-0.083,-0.0876,-0.0898,-0.088,-0.0843,-0.077,-0.07,-0.0631,-0.0474,-0.0229,-0.0097,0.003,0.0105,0.0295,0.0255,0.0319,0.0475,0.0476,0.0413,0,0,0,0,0,0,-0.0685,-0.0746,-0.0781,-0.0856,-0.0899,-0.0938,-0.0932,-0.0881,-0.0817,-0.0726,-0.0582,-0.0481,-0.0227,-0.0314,0.0018,0.0065,0.0114,0.0388,0.039,0.0474,0.0475,0.0476,0.0412,0,0,0,0,0]}]]